Location: Bakhuizen
(52.8696°N, 5.4575°E)
Time: 14:04:43
(UTC+00:00)

Okean 2 Rocket - Pass Details

Date: 11 May 2021
Orbit: 617 x 641 km, 82.5° (Epoch: 19 June)

Event Time Altitude Azimuth Distance (km) Brightness Sun altitude
Rises 23:15:28 0° 354° (N) 2,908 8.2 -18.9°
Reaches altitude 10° 23:17:51 10° 3° (N) 1,996 6.9 -18.9°
Maximum altitude 23:21:56 36° 70° (ENE) 988 4.2 -18.9°
Enters shadow 23:23:58 23° 120° (ESE) 1,307 4.4 -19.0°
